Wind_Speed
22 22 22 21 22 21 21 20 20 20 19 18 17 17 17 17 16 16 16 16 15 16 17 17 18 18 18 18 18 17 17 18 18 18 18 18 19 19 19 18 19 19 18 19
24 23 23 23 23 23 23 22 21 21 21 19 18 19 18 18 19 19 18 18 17 17 18 18 19 20 20 19 20 19 19 20 20 20 20 20 20 21 20 20 20 20 20 20
24 24 24 25 24 24 24 23 23 22 20 20 20 20 20 20 21 21 21 20 19 19 19 20 20 20 21 21 21 21 21 21 21 22 22 22 22 21 21 21 21 21 21 22
26 26 27 25 24 24 24 24 24 24 23 22 22 22 22 23 23 23 22 22 22 22 22 22 22 22 22 22 22 23 23 23 23 23 23 24 24 23 23 23 23 23 24 24
28 28 28 26 25 25 24 25 25 25 24 24 24 24 24 24 25 24 24 24 24 25 24 24 24 24 23 23 24 24 24 24 24 25 25 25 25 25 26 26 26 26 26 26
29 28 28 27 27 25 25 27 26 27 26 25 25 25 25 25 25 26 26 26 26 26 26 26 25 25 25 25 24 24 24 25 25 25 26 26 26 27 27 28 28 28 28 28
29 29 29 29 28 27 27 28 26 27 27 27 27 27 27 26 26 28 28 28 27 27 27 27 26 26 26 25 24 25 26 26 26 26 27 27 27 28 29 29 29 30 30 30
30 30 29 30 29 29 29 29 28 28 28 28 28 28 27 27 27 27 28 28 28 28 27 27 28 28 28 27 27 27 27 27 27 28 28 29 29 29 30 30 31 31 31 30
31 31 31 31 30 30 30 29 29 29 28 28 27 28 28 28 27 28 28 28 29 29 29 28 28 28 28 28 28 28 29 29 29 29 30 30 30 31 31 31 31 31 32 31
32 32 32 31 31 30 30 29 29 28 28 28 28 28 28 28 28 28 29 29 30 30 29 29 28 28 29 29 30 29 30 30 30 31 31 32 32 32 33 32 33 33 33 33
33 33 33 32 31 31 31 30 30 30 29 30 29 29 29 29 29 29 29 29 29 29 29 29 29 28 29 30 30 30 30 30 31 31 33 33 33 32 33 33 33 34 34 33
33 33 33 32 32 32 32 32 32 31 31 31 31 30 30 30 30 30 30 30 30 29 29 29 29 30 30 30 31 30 30 30 31 31 32 32 31 32 32 33 33 33 33 33
33 33 33 33 32 33 32 32 32 32 32 31 31 31 31 30 31 31 30 30 30 29 29 29 30 29 30 30 30 30 31 31 31 31 31 31 31 32 32 32 33 32 31 31
33 33 33 33 32 32 32 32 33 33 32 31 31 31 31 31 31 30 30 30 30 30 30 30 30 30 30 30 30 31 31 31 31 31 31 31 31 32 32 32 32 31 31 30
33 33 33 32 32 32 32 32 32 32 32 32 31 31 31 31 31 30 30 30 30 30 30 30 30 30 30 30 31 31 31 31 31 31 31 31 32 31 31 32 32 32 31 30
32 32 32 32 32 31 31 31 31 31 31 31 31 30 30 30 30 30 30 30 30 30 30 30 31 31 31 31 32 32 31 30 31 31 31 31 31 30 30 31 31 31 30 30
31 31 31 32 31 31 31 32 31 30 30 30 30 28 28 28 29 30 30 30 30 30 30 31 31 31 31 31 31 32 31 31 31 30 31 32 32 31 31 31 30 29 29 30
31 30 31 31 32 32 31 31 31 30 29 29 29 28 28 29 29 30 31 31 31 31 31 31 31 31 31 31 30 31 31 30 30 30 30 31 30 30 30 29 29 29 29 29
29 29 29 30 31 32 32 31 30 30 30 30 29 29 29 29 30 30 31 31 32 32 31 31 31 30 29 30 30 30 31 31 31 31 31 30 29 29 28 28 29 29 29 29
29 29 29 29 30 31 32 32 31 31 30 29 29 30 30 29 29 29 30 30 30 30 30 30 29 28 29 29 30 30 29 29 29 29 29 29 29 28 28 29 29 29 29 28
28 29 29 29 30 30 30 30 30 30 29 28 29 29 29 29 29 29 28 28 29 30 29 28 27 27 28 28 29 28 28 27 27 27 27 27 27 27 28 28 28 28 28 28
25 26 27 27 28 28 28 28 28 28 28 28 29 29 29 28 28 29 29 28 28 28 28 27 26 26 27 27 27 26 26 26 26 26 26 26 26 26 27 27 27 27 27 28
23 24 25 25 25 25 25 25 25 26 26 27 27 28 28 28 28 28 26 25 25 25 25 25 25 25 25 25 25 24 24 24 24 25 25 26 26 26 27 27 27 27 27 27
21 22 23 23 23 24 24 24 24 24 25 25 26 26 26 26 26 26 24 23 23 23 23 23 24 24 24 23 23 23 23 24 24 24 25 25 26 26 26 26 26 26 26 27
19 19 19 20 21 21 22 22 22 23 23 23 24 24 24 24 23 23 23 22 22 22 22 21 22 22 21 22 22 23 23 24 25 25 26 26 26 26 25 25 26 26 26 27
17 17 16 17 18 19 20 20 20 21 21 21 21 20 21 20 20 20 21 22 21 21 21 21 21 21 22 22 23 23 24 25 25 25 25 25 25 25 25 25 25 26 26 26
17 17 17 17 17 17 17 17 17 16 17 17 18 17 17 17 17 17 17 18 20 20 20 21 21 22 22 23 23 24 25 25 25 25 25 25 25 25 25 25 25 25 25 26
Wind_Direction
247 249 249 252 252 253 253 254 256 256 258 260 260 257 257 258 259 262 268 271 274 275 276 277 277 277 278 280 286 289 292 294 295 295 295 294 293 294 293 294 295 297 297 298
251 251 249 251 253 253 255 256 256 256 258 259 258 257 258 259 260 262 266 269 271 274 276 277 277 276 279 281 287 289 290 292 293 294 294 294 294 294 293 292 294 295 295 296
253 254 253 254 255 255 255 254 254 255 255 255 257 258 258 259 261 262 265 267 270 273 275 277 279 279 279 281 284 287 288 289 291 293 294 294 294 294 294 293 294 294 293 293
252 253 253 256 257 256 255 253 252 252 252 254 256 256 257 258 260 262 263 266 270 273 275 276 278 279 280 280 282 284 286 289 290 291 292 294 293 293 294 293 292 293 293 293
252 254 257 257 257 256 256 254 253 253 254 256 256 258 258 258 259 261 262 265 268 273 275 275 276 277 278 279 280 282 284 287 289 289 291 293 292 292 292 292 291 291 291 292
252 252 255 257 258 258 258 257 254 253 255 257 258 260 259 259 260 261 264 266 269 272 274 275 276 277 278 278 279 282 284 284 288 290 291 292 292 291 290 290 291 290 289 289
252 253 254 256 257 256 256 257 255 254 255 257 257 259 260 260 261 263 264 266 269 272 275 275 276 277 278 279 279 281 283 283 285 289 291 291 291 291 290 288 288 289 288 288
250 251 252 255 255 254 255 257 257 256 255 256 257 260 261 262 262 264 266 266 269 272 275 276 276 276 278 280 280 282 284 283 285 288 290 290 291 291 290 289 289 290 290 289
249 251 252 254 254 255 257 258 258 258 256 255 256 258 260 261 261 262 264 265 267 269 272 273 275 276 278 280 281 282 283 284 286 287 289 291 292 292 292 292 291 290 290 290
251 251 252 254 254 255 256 258 258 257 256 255 256 256 259 260 260 261 262 263 264 267 269 272 274 276 278 282 284 283 283 284 285 287 289 290 290 292 292 292 291 290 290 289
250 250 252 253 253 255 257 258 258 256 255 256 257 258 260 260 260 261 262 263 264 266 267 269 273 276 280 282 283 285 285 285 286 288 288 288 288 290 291 291 290 289 288 287
250 251 253 254 254 256 257 258 259 258 257 257 258 259 259 260 260 260 261 262 263 264 266 269 272 275 279 281 283 285 285 286 288 289 289 289 290 291 292 292 291 289 288 288
252 253 254 254 254 255 256 257 258 259 260 260 260 260 260 260 260 260 260 261 263 265 267 269 271 274 277 280 282 283 284 287 288 288 288 289 291 293 293 293 292 290 287 287
252 253 253 253 254 255 255 256 257 259 259 260 261 261 261 262 262 262 262 262 264 265 266 269 271 274 276 279 282 284 284 286 286 287 288 289 291 292 291 293 294 290 288 288
253 253 252 252 253 254 255 255 256 257 259 259 260 261 261 262 262 263 264 263 263 264 266 269 271 273 276 278 280 283 286 286 286 286 288 290 291 292 292 294 294 292 291 290
252 251 250 250 250 252 254 254 255 256 257 258 258 259 260 261 261 261 261 262 262 264 266 268 270 272 275 276 278 281 283 285 286 286 287 288 289 289 291 293 292 291 292 293
251 250 250 249 249 250 251 253 255 258 258 257 257 257 258 261 262 260 260 262 264 265 266 267 268 271 273 275 278 280 282 283 284 285 286 286 287 289 290 291 291 294 295 297
253 251 249 247 248 249 251 253 254 255 257 258 259 258 259 262 262 261 261 262 263 265 267 267 268 271 273 275 277 280 282 282 283 284 286 286 287 288 289 290 292 294 295 295
252 251 250 249 250 251 252 253 254 256 257 258 259 258 259 261 262 263 262 262 264 265 267 268 269 271 272 275 277 279 281 281 282 282 283 284 286 288 289 291 292 293 294 294
251 250 251 252 253 254 254 253 254 257 258 260 260 259 258 260 262 263 263 263 264 267 268 268 268 268 271 274 276 279 281 282 282 282 283 284 286 287 288 290 291 292 293 293
252 252 253 253 254 254 255 255 255 257 258 258 258 258 259 260 261 263 264 265 265 267 268 269 270 271 274 276 278 279 282 284 285 286 286 286 287 288 289 290 291 292 293 294
252 251 252 252 252 253 253 253 255 256 255 255 256 258 259 259 260 262 264 265 266 267 268 268 269 271 274 277 280 282 283 284 285 286 287 287 289 289 290 291 293 294 295 295
250 249 249 249 250 250 249 251 254 254 253 254 256 257 258 258 260 263 263 263 266 267 268 269 270 272 275 279 281 281 281 283 285 286 288 289 291 291 292 293 294 296 297 297
247 247 247 247 247 247 250 253 253 254 253 253 256 258 258 258 260 260 260 263 265 266 267 269 271 273 275 277 280 282 283 284 286 288 289 290 290 291 293 294 295 296 297 298
245 245 246 247 246 247 249 249 251 253 254 255 258 258 259 260 260 260 261 264 267 267 267 269 272 274 275 278 281 282 283 285 287 288 289 290 291 292 294 296 296 296 297 298
244 245 245 245 243 245 246 248 250 253 255 254 255 256 256 256 259 260 259 260 262 263 264 267 270 271 275 278 281 283 285 286 288 289 290 290 291 292 293 294 295 296 297 297
248 248 248 247 247 246 245 245 248 249 252 253 253 253 255 256 258 260 259 259 260 262 264 267 269 272 276 279 283 286 287 287 288 289 289 290 291 292 293 293 293 295 297 298
Height
5877 5878 5880 5881 5882 5883 5884 5886 5888 5888 5888 5889 5889 5889 5890 5890 5891 5891 5891 5891 5891 5891 5890 5889 5888 5887 5886 5885 5884 5883 5882 5880 5878 5877 5875 5874 5872 5870 5869 5868 5866 5865 5863 5861
5870 5872 5873 5874 5876 5877 5878 5880 5881 5882 5883 5883 5884 5884 5885 5885 5886 5886 5887 5886 5886 5886 5885 5884 5883 5882 5881 5880 5879 5878 5877 5875 5874 5872 5870 5869 5868 5866 5864 5863 5861 5859 5858 5856
5864 5865 5866 5867 5869 5871 5872 5873 5875 5876 5878 5877 5878 5878 5879 5880 5880 5881 5881 5881 5881 5880 5880 5879 5878 5877 5876 5875 5874 5873 5872 5870 5869 5867 5866 5864 5862 5860 5859 5857 5855 5854 5852 5850
5857 5858 5859 5863 5863 5864 5865 5866 5867 5868 5870 5871 5872 5872 5873 5874 5874 5874 5875 5875 5875 5874 5874 5873 5872 5871 5870 5869 5868 5867 5866 5864 5863 5861 5860 5858 5856 5855 5853 5851 5849 5848 5846 5844
5849 5851 5852 5854 5855 5857 5858 5859 5860 5861 5863 5864 5865 5866 5866 5867 5867 5868 5868 5868 5868 5868 5867 5867 5866 5865 5864 5863 5862 5861 5859 5858 5857 5855 5853 5852 5850 5848 5846 5844 5842 5841 5839 5837
5841 5843 5845 5848 5847 5849 5852 5852 5853 5854 5855 5857 5858 5859 5860 5859 5860 5860 5861 5861 5861 5860 5860 5860 5859 5858 5857 5856 5855 5854 5853 5852 5850 5848 5846 5845 5843 5841 5839 5837 5835 5833 5832 5830
5832 5834 5837 5838 5839 5841 5844 5845 5845 5846 5847 5849 5850 5851 5852 5852 5852 5853 5853 5853 5853 5853 5852 5852 5851 5851 5850 5849 5848 5847 5846 5845 5843 5841 5839 5837 5835 5833 5831 5829 5827 5825 5823 5821
5824 5826 5830 5829 5831 5833 5834 5835 5836 5837 5839 5840 5841 5842 5843 5843 5844 5844 5845 5845 5845 5845 5845 5844 5843 5843 5842 5842 5840 5839 5838 5837 5835 5833 5831 5829 5827 5825 5823 5820 5818 5816 5814 5812
5816 5819 5819 5820 5822 5823 5824 5826 5827 5828 5830 5831 5833 5834 5834 5835 5836 5836 5837 5837 5837 5837 5836 5836 5835 5835 5834 5833 5832 5831 5830 5828 5827 5825 5823 5821 5819 5816 5814 5811 5809 5807 5805 5803
5806 5808 5810 5811 5812 5814 5815 5817 5818 5819 5821 5822 5824 5825 5825 5826 5827 5827 5828 5828 5828 5828 5828 5828 5827 5827 5826 5825 5823 5822 5821 5820 5818 5817 5815 5813 5810 5807 5805 5802 5800 5797 5795 5793
5796 5798 5800 5801 5803 5805 5806 5807 5809 5810 5812 5813 5814 5816 5816 5817 5817 5818 5818 5819 5819 5819 5819 5819 5819 5818 5817 5816 5815 5813 5812 5811 5809 5808 5806 5804 5801 5799 5796 5793 5790 5787 5785 5783
5787 5789 5790 5792 5794 5795 5797 5798 5800 5801 5802 5804 5805 5806 5807 5807 5808 5809 5809 5810 5810 5810 5810 5810 5810 5810 5809 5808 5806 5805 5804 5802 5800 5798 5796 5794 5792 5789 5786 5784 5781 5778 5775 5773
5777 5778 5780 5782 5784 5785 5787 5789 5790 5792 5793 5794 5795 5796 5797 5798 5799 5799 5800 5801 5801 5801 5801 5801 5801 5801 5801 5799 5798 5796 5795 5793 5791 5789 5787 5785 5782 5780 5777 5774 5771 5768 5766 5764
5766 5768 5770 5772 5774 5776 5777 5779 5781 5782 5783 5785 5786 5786 5787 5788 5788 5789 5790 5791 5792 5792 5792 5792 5792 5792 5792 5790 5789 5787 5786 5784 5782 5780 5778 5775 5773 5770 5768 5765 5762 5759 5757 5755
5757 5758 5760 5762 5764 5766 5768 5770 5771 5773 5774 5776 5777 5777 5778 5778 5779 5780 5781 5782 5782 5783 5783 5783 5783 5783 5782 5781 5780 5779 5777 5775 5773 5771 5769 5767 5764 5762 5759 5756 5753 5751 5748 5746
5747 5748 5750 5753 5755 5757 5758 5760 5762 5763 5764 5766 5767 5768 5769 5770 5770 5771 5772 5772 5773 5774 5774 5774 5774 5774 5773 5772 5771 5769 5768 5766 5764 5762 5761 5758 5756 5753 5751 5748 5746 5743 5740 5738
5737 5739 5741 5743 5745 5747 5749 5751 5752 5754 5755 5756 5758 5759 5760 5761 5762 5762 5763 5763 5764 5765 5765 5765 5765 5764 5763 5762 5761 5760 5758 5757 5755 5754 5752 5749 5747 5745 5743 5740 5738 5735 5733 5730
5728 5730 5732 5734 5736 5738 5740 5741 5743 5745 5746 5748 5749 5750 5751 5752 5753 5753 5754 5754 5755 5755 5755 5755 5755 5754 5754 5753 5752 5750 5749 5747 5746 5745 5743 5741 5739 5737 5735 5732 5730 5727 5725 5722
5719 5721 5723 5725 5727 5729 5731 5732 5734 5736 5738 5739 5740 5742 5743 5743 5744 5744 5744 5744 5745 5745 5745 5745 5745 5745 5744 5744 5743 5741 5740 5739 5737 5735 5734 5732 5730 5729 5726 5724 5722 5719 5716 5714
5711 5712 5714 5716 5718 5719 5721 5723 5725 5727 5728 5730 5732 5733 5734 5734 5734 5735 5735 5735 5735 5735 5735 5735 5735 5735 5735 5734 5733 5732 5731 5730 5728 5727 5725 5723 5722 5720 5718 5716 5714 5711 5708 5705
5702 5704 5706 5707 5708 5710 5712 5714 5716 5717 5719 5721 5722 5723 5724 5725 5726 5726 5726 5726 5726 5726 5726 5726 5726 5726 5726 5726 5725 5724 5722 5721 5720 5718 5716 5715 5713 5712 5710 5708 5705 5702 5700 5697
5694 5695 5697 5698 5699 5701 5703 5705 5707 5709 5711 5712 5714 5715 5716 5717 5717 5717 5718 5718 5718 5718 5718 5718 5718 5718 5718 5717 5717 5716 5715 5713 5712 5710 5708 5707 5705 5703 5701 5699 5696 5694 5691 5688
5686 5687 5688 5690 5691 5693 5695 5697 5699 5701 5702 5704 5706 5707 5707 5708 5709 5709 5710 5710 5710 5710 5710 5710 5711 5711 5710 5710 5709 5708 5707 5705 5704 5702 5701 5699 5697 5695 5692 5690 5687 5685 5682 5680
5679 5680 5681 5683 5684 5686 5688 5690 5691 5693 5695 5696 5697 5698 5699 5700 5701 5701 5702 5702 5703 5703 5703 5703 5703 5703 5703 5702 5701 5700 5699 5698 5697 5695 5693 5691 5689 5687 5684 5681 5679 5676 5674 5671
5672 5673 5674 5676 5677 5679 5681 5683 5684 5686 5688 5689 5690 5691 5692 5693 5694 5694 5695 5695 5696 5696 5696 5696 5696 5696 5696 5695 5694 5693 5692 5690 5689 5687 5685 5683 5681 5678 5676 5673 5671 5668 5665 5662
5667 5668 5669 5670 5672 5673 5675 5676 5678 5679 5681 5682 5682 5684 5685 5685 5686 5687 5688 5688 5689 5689 5690 5690 5690 5689 5689 5688 5687 5686 5684 5682 5681 5679 5677 5675 5672 5670 5668 5665 5662 5659 5656 5654
5662 5663 5664 5665 5667 5668 5669 5671 5672 5673 5675 5676 5677 5678 5678 5679 5680 5680 5681 5682 5682 5683 5683 5683 5683 5682 5681 5680 5679 5678 5676 5675 5673 5671 5669 5666 5664 5662 5659 5657 5654 5651 5649 5646